Location: Newark
(34.6283°N, 36.0776°E)
Time: 01:32:32
(UTC+00:00)

S-56A Canister/Altair - Pass Details

Date: 21 October 2019
Orbit: 634 x 2498 km, 38.9° (Epoch: 11 November)

Event Time Altitude Azimuth Distance (km) Brightness Sun altitude
Rises 23:02:20 0° 237° (WSW) 3,043 - -56.8°
Reaches altitude 10° 23:04:26 10° 234° (SW) 2,230 - -56.4°
Maximum altitude 23:09:28 66° 152° (SSE) 973 - -55.6°
Exits shadow 23:16:14 12° 72° (ENE) 2,983 10.9 -54.5°
Drops below altitude 10° 23:16:44 10° 72° (ENE) 3,167 11.0 -54.4°
Sets 23:20:14 0° 70° (ENE) 4,444 12.0 -53.8°
